Regional Weather Roundup
Issued by NWS State College, PA

Home | Current Version | Previous Version | Text Only | Print | Product List | Glossary On
Versions: 1 2 3 4 5 6 7 8 9 10 11 12 13 14 15 16 17 18 19 20 21 22 23 24 25 26 27 28 29 30 31 32 33 34 35 36 37 38 39 40 41 42 43 44 45 46 47 48 49 50
826
ASUS41 KCTP 221310
RWRCTP

REGIONAL WEATHER ROUNDUP
NATIONAL WEATHER SERVICE STATE COLLEGE PA
900 AM EDT FRI MAY 22 2015

Note: "fair" indicates few or no clouds below 12,000 feet with no
significant weather and/or obstructions to visibility.

* = STATION THAT DOES NOT REPORT PRECIPITATION /E.G. RAIN...SNOW...ETC/
    THUNDER OR FOG.

PAZ002>004-007>009-013>016-020>023-029>032-221400-
WESTERN PENNSYLVANIA

CITY           SKY/WX    TMP DP  RH WIND       PRES   REMARKS
ERIE           MOSUNNY   52  34  50 NW9       30.08R
MEADVILLE      PTSUNNY   51  43  74 W8        30.06R
FRANKLIN*      PTSUNNY   46  39  76 W10       30.08R
NEW CASTLE     PTSUNNY   53  44  71 SW3       30.10S
BEAVER COUNTY  SUNNY     52  41  66 W7        30.11R
BUTLER*        SUNNY     52  43  71 W7        30.11S
PITTSBURGH INT MOSUNNY   53  42  66 W6        30.11R
PITTSBURGH     PTSUNNY   51  37  58 SW9       30.11R
INDIANA*       PTSUNNY   48  45  87 W8        30.13R
LATROBE        MOSUNNY   50  45  81 SW12      30.13R
WASHINGTON CO* SUNNY     54  43  66 SW8       30.14S
$$

PAZ004>006-010>012-017>019-024>028-033>037-041-042-045-046-049>053-221400-
CENTRAL PENNSYLVANIA

CITY           SKY/WX    TMP DP  RH WIND       PRES   REMARKS
BRADFORD       PTSUNNY   48  37  65 W12       30.02R
DUBOIS         CLOUDY    47  42  83 SW10      30.05R
CLEARFIELD     CLOUDY    48  42  80 SW12      30.06R
JOHNSTOWN      SUNNY     49  40  71 W9        30.07R
ALTOONA        SUNNY     53  41  63 S9        30.07R
STATE COLLEGE  SUNNY     52  43  71 W14       30.04R
WILLIAMSPORT   SUNNY     55  43  63 W12       30.00S
SELINSGROVE    SUNNY     59  44  57 VRB7      30.02S
FT INDIANTOWN  SUNNY     58  40  51 NW10G17   30.01R
CAPITAL CITY   SUNNY     59  41  51 W10       30.03R
HARRISBURG     SUNNY     59  42  53 NW15      30.02R
YORK           SUNNY     60  43  53 W8        30.04R
$$

PAZ038>040-043-044-047-048-054-055-060>062-067>071-221400-
EASTERN PENNSYLVANIA

CITY           SKY/WX    TMP DP  RH WIND       PRES   REMARKS
SCRANTON       SUNNY     55  41  59 SW8       29.97S
MOUNT POCONO   SUNNY     54  38  54 NW14      29.94S
ALLENTOWN      SUNNY     61  41  47 W9G18     29.97R
QUAKERTOWN*    SUNNY     59  41  51 NW7       29.98S
READING        SUNNY     60  40  47 NW15      29.99R
LANCASTER      SUNNY     58  42  55 NW12G24   30.01R
COATESVILLE    SUNNY     57  45  62 W21       30.01R
POTTSTOWN      SUNNY     58  42  55 NW7       30.00R
BLUE BELL      SUNNY     59  43  55 W6        29.97S
DOYLESTOWN     SUNNY     59  40  49 NW9       29.96R
WILLOW GROVE   NOT AVBL
NORTH PHILA    SUNNY     61  43  51 NW10G21   29.99R
PHILADELPHIA   SUNNY     61  42  49 NW12      29.99R
$$



USA.gov is the U.S. government's official web portal to all federal, state and local government web resources and services.